User: anonymous   Login
Location: *
(51.5000°N, 0.1100°W)
Time: 05:53:36
(UTC+00:00)
Language:

Cosmos 968 Rocket - Orbit

View from above orbital plane
View from above orbital plane
View from above satellite
View from above satellite

Ground track
Ground track

The orbit data is extracted from the following two-line orbital elements,

1 10521U 77119B   24204.31350536  .00000758  00000-0  24033-3 0  9997
2 10521  74.0270 147.9609 0022047 249.7051 110.1735 14.41613698445295
Epoch (UTC): 22 July 2024 07:31:26
Eccentricity: 0.0022047
inclination: 74.0270°
perigee height: 737 km
apogee height: 769 km
right ascension of ascending node: 147.9609°
argument of perigee: 249.7051°
revolutions per day: 14.41613698
mean anomaly at epoch: 110.1735°
orbit number at epoch: 44529

The dashed part of the orbit path shows where the satellite is in the earth's shadow,  

DLR